Wind_Speed
31 35 37 37 39 39 38 40 41 46 50 53 50 50 48 43 39 42 46 48 50 52 53 55 57 59 62 62 62 60 61 65 66 64 65 66 69 76 86 88 88 87 85 84
34 35 36 37 37 36 38 39 44 46 50 54 49 44 40 35 39 44 48 49 50 52 55 59 62 63 64 64 62 63 64 64 65 68 69 68 70 70 75 87 91 91 90 89
33 35 36 34 34 36 39 42 46 51 50 50 47 37 33 33 40 41 42 44 47 51 58 62 64 66 66 68 67 66 65 64 65 67 64 69 68 70 72 75 88 95 96 94
32 32 31 30 33 35 39 43 47 50 52 46 39 36 35 38 40 40 43 47 48 55 56 52 53 54 56 62 68 70 70 69 65 61 66 64 70 66 70 70 71 91 98 98
33 30 29 31 34 37 39 43 47 49 48 41 29 31 34 39 39 42 44 46 46 53 50 46 45 50 52 53 56 61 68 72 73 72 65 64 64 66 66 71 67 72 89 100
30 28 32 33 35 38 41 44 46 46 45 37 27 34 36 37 39 40 39 42 45 49 43 39 39 42 46 47 49 44 49 61 74 71 70 69 62 63 63 71 68 63 68 84
30 30 32 33 35 37 42 45 46 48 45 35 29 33 38 35 38 36 38 42 43 46 41 35 35 37 40 43 39 39 39 43 52 59 59 62 60 58 61 70 70 64 59 63
31 30 32 35 35 38 42 45 45 47 44 34 28 32 35 33 36 37 40 42 43 45 45 41 34 32 29 32 31 28 25 30 34 37 45 55 53 55 57 66 69 66 61 57
30 29 34 34 34 37 41 43 44 45 39 33 29 37 38 37 38 40 41 43 46 45 46 41 31 26 27 26 24 21 19 22 24 27 36 44 48 49 50 54 60 64 64 58
32 30 33 34 33 35 38 42 43 43 39 33 33 33 37 38 37 41 43 46 47 47 46 41 33 24 23 19 15 12 13 16 20 22 27 33 38 43 44 46 50 55 60 58
32 31 33 35 33 34 36 39 41 42 32 30 38 32 36 37 40 41 42 45 47 46 43 40 33 25 18 11 7 4 9 12 16 20 23 27 31 36 39 41 44 47 53 54
32 33 34 34 32 33 32 37 39 42 33 25 30 31 37 40 41 41 42 45 45 49 46 38 35 26 17 11 8 1 5 9 13 17 20 24 28 31 36 40 41 43 47 48
35 32 33 33 32 33 30 35 37 38 30 20 27 29 34 37 40 42 41 43 43 45 45 44 33 27 21 11 7 5 6 7 9 13 19 24 28 31 32 36 40 42 43 42
34 29 33 32 32 33 29 34 38 36 30 23 23 26 28 36 40 42 39 42 41 40 41 45 39 32 22 18 12 7 8 10 12 15 16 20 25 27 31 33 35 38 37 38
31 28 30 28 30 31 27 31 33 35 32 25 18 26 28 34 38 40 39 40 41 37 36 39 41 30 31 24 12 11 7 6 9 13 16 20 23 27 28 29 32 37 29 25
31 29 31 28 27 30 25 29 31 32 33 24 21 20 26 31 35 37 40 37 40 35 33 32 32 33 30 25 23 12 9 7 8 9 13 20 24 27 27 28 28 28 32 24
31 31 34 29 26 27 24 26 28 28 32 25 19 21 22 29 31 34 35 38 37 33 29 28 28 30 29 25 20 19 18 17 17 11 3 7 10 23 28 28 27 30 22 26
29 31 34 33 28 24 22 25 25 25 30 29 20 21 22 25 29 30 30 34 35 33 29 28 28 26 28 29 23 18 18 20 17 8 9 7 4 8 17 29 30 27 29 27
31 32 34 32 30 26 14 25 24 24 22 26 23 21 21 20 25 26 25 26 30 32 29 27 25 26 25 23 22 22 19 19 18 18 25 22 22 13 28 35 33 35 32 37
28 30 31 33 36 30 17 24 23 24 23 25 22 22 20 18 20 23 22 20 23 25 28 29 25 22 24 24 24 25 26 20 27 27 30 34 26 33 23 25 25 25 31 31
27 28 29 31 35 32 18 24 27 24 23 23 24 23 21 17 17 19 20 16 16 19 21 25 25 22 21 21 21 24 27 25 21 20 22 21 24 28 26 30 27 32 26 24
32 34 33 36 35 34 25 25 27 23 23 25 25 25 25 16 14 15 18 14 12 14 15 18 24 25 22 21 21 22 22 23 25 26 24 24 28 23 19 20 19 18 18 16
34 36 41 42 34 33 25 28 28 23 22 23 25 26 25 19 12 14 16 13 10 11 11 13 14 19 23 26 28 29 24 18 16 18 18 19 18 20 20 18 15 12 10 10
33 36 37 40 27 34 34 32 28 26 26 25 24 26 26 21 12 13 15 12 8 7 6 9 12 15 18 20 23 25 26 28 29 29 28 29 27 24 20 18 18 15 13 10
31 31 31 34 37 39 34 29 26 27 29 28 26 27 27 21 14 12 14 11 7 1 3 7 11 15 17 19 22 23 24 25 25 27 28 27 26 24 23 21 18 15 13 10
25 29 34 39 34 37 23 27 29 30 31 31 29 28 26 20 16 13 14 10 7 5 6 9 12 13 15 20 24 24 23 23 23 22 22 20 19 18 16 14 11 9 6 4
Wind_Direction
301 302 302 303 303 306 309 310 313 312 313 312 310 309 304 299 297 303 303 299 297 294 290 286 282 279 277 273 269 263 259 254 251 249 249 247 245 239 237 233 230 232 232 235
303 303 303 305 307 309 311 316 315 318 317 314 314 312 307 303 303 304 305 303 300 297 294 290 285 282 278 274 269 265 259 256 254 251 249 245 244 241 239 233 228 228 231 232
305 305 307 309 311 311 315 317 318 321 320 317 316 312 308 307 307 307 307 305 303 305 302 296 289 283 277 272 267 262 259 257 255 252 246 243 242 241 239 237 229 226 227 230
306 309 310 312 314 315 316 319 322 323 322 322 320 316 313 315 316 317 315 313 309 310 307 297 293 291 286 275 267 257 250 248 246 246 246 243 239 240 239 239 236 229 225 226
309 312 314 318 318 317 316 321 324 324 324 323 312 313 328 326 324 324 318 311 312 314 310 302 302 300 296 287 275 266 252 242 240 241 245 246 242 235 237 235 236 235 229 225
312 313 315 318 317 318 320 323 324 324 328 325 325 331 335 329 328 321 317 320 324 322 312 303 308 304 290 284 287 277 262 250 243 238 236 241 242 233 232 231 231 231 234 230
312 312 315 316 316 319 320 324 327 329 331 327 330 330 332 331 329 328 336 334 327 331 321 312 318 304 287 289 292 284 267 248 241 238 232 230 234 230 228 228 229 230 235 236
310 314 315 317 318 318 322 326 331 330 330 323 325 331 339 339 336 341 343 342 338 334 335 323 324 315 308 305 300 287 268 236 224 229 232 230 228 228 225 227 229 230 234 236
309 314 317 317 316 319 325 327 330 330 327 317 325 340 336 340 347 346 342 345 353 344 342 337 331 318 316 317 309 288 245 224 219 219 220 225 224 222 224 225 229 231 234 235
306 307 316 315 314 319 324 326 329 332 327 321 325 338 339 340 348 351 344 348 356 356 348 346 341 330 336 330 315 275 212 205 208 207 209 214 218 219 220 223 228 228 231 234
303 306 314 314 312 318 325 325 327 329 322 318 317 345 341 339 351 349 346 346 347 353 357 350 349 347 350 352 338 233 215 205 202 209 207 212 216 216 216 220 225 226 229 234
300 304 309 308 309 315 323 322 327 330 326 319 323 343 342 343 347 349 350 347 347 349 358 357 353 351 352 336 343 12 214 208 214 215 219 217 219 218 216 218 222 224 227 230
302 302 305 305 304 313 323 322 328 331 322 314 321 340 341 340 347 355 350 349 351 353 355 1 360 351 350 335 334 290 238 216 221 222 226 227 222 218 219 221 222 223 224 227
302 296 302 303 305 309 322 322 328 331 323 307 323 334 345 341 348 350 353 353 354 354 355 355 354 353 353 344 338 309 270 251 247 242 234 228 227 225 222 222 223 221 219 227
294 294 300 295 298 305 319 320 324 327 324 311 321 331 346 338 344 349 356 355 356 355 359 357 4 2 353 350 344 330 322 279 250 243 236 227 218 217 218 217 216 210 211 215
291 292 296 293 294 301 315 313 322 328 330 318 315 329 336 336 342 348 352 359 358 357 0 1 8 2 357 350 352 4 14 289 282 261 231 223 220 218 211 207 201 207 211 210
287 289 295 300 289 295 306 308 318 329 331 322 307 320 331 334 340 349 351 356 359 1 1 4 13 13 19 16 359 9 9 24 35 43 138 178 216 229 218 210 202 209 208 204
287 291 292 298 290 291 303 304 313 323 324 340 307 311 322 333 338 348 354 357 0 1 8 8 16 22 18 35 44 31 38 40 55 57 46 59 75 134 190 201 199 183 177 170
286 290 293 294 291 294 303 300 303 312 327 330 333 305 313 327 333 344 352 4 10 4 11 22 24 30 33 34 44 41 44 53 63 78 105 100 112 131 134 147 162 166 176 153
287 293 295 299 301 299 299 296 294 302 314 320 322 327 298 314 327 338 346 357 6 18 14 19 30 31 40 43 37 45 55 68 71 67 90 90 103 106 133 133 100 131 130 133
286 290 301 307 306 303 293 287 293 294 305 308 315 318 312 296 314 331 341 350 4 8 27 36 35 37 40 53 53 55 69 78 82 69 80 77 90 101 109 111 109 110 123 121
283 284 289 291 303 304 280 281 281 289 292 294 308 310 313 287 298 318 330 333 346 355 17 34 45 58 54 50 57 65 74 81 85 81 75 86 96 100 98 106 105 112 125 120
284 283 284 285 292 298 275 270 271 288 285 288 295 302 303 285 273 300 318 323 332 336 9 33 52 62 63 62 68 77 83 85 89 90 83 84 89 99 98 106 108 109 118 150
290 291 290 287 286 293 263 261 270 282 283 282 286 293 293 283 245 279 303 308 313 327 11 57 70 78 81 81 79 79 76 72 75 77 76 79 84 88 100 109 104 94 88 89
297 295 289 286 295 284 266 268 270 280 283 276 276 282 285 270 224 257 285 293 289 280 86 89 96 96 91 89 87 86 86 83 82 82 82 82 82 83 84 83 85 83 79 70
309 290 296 293 294 296 286 274 280 284 283 275 271 275 273 237 210 241 272 271 250 164 137 128 114 101 97 98 97 94 92 90 88 86 82 80 79 78 79 81 83 81 75 66
Height
5706 5705 5700 5695 5691 5686 5679 5674 5669 5663 5654 5646 5638 5629 5621 5615 5611 5606 5601 5595 5589 5584 5580 5576 5572 5570 5565 5564 5563 5566 5567 5569 5574 5578 5582 5586 5592 5599 5610 5625 5638 5650 5659 5665
5700 5697 5692 5687 5682 5677 5671 5666 5660 5656 5644 5633 5627 5619 5611 5608 5603 5597 5590 5584 5577 5571 5566 5560 5555 5550 5546 5545 5544 5544 5547 5550 5552 5555 5560 5567 5573 5580 5587 5598 5615 5630 5640 5646
5692 5689 5683 5679 5674 5670 5662 5657 5651 5643 5637 5624 5615 5610 5604 5601 5596 5589 5581 5574 5567 5559 5551 5543 5535 5529 5527 5522 5523 5523 5525 5528 5531 5534 5540 5548 5554 5562 5570 5580 5592 5604 5617 5628
5685 5680 5676 5671 5667 5663 5657 5650 5642 5633 5623 5615 5605 5599 5596 5591 5586 5579 5572 5563 5555 5546 5533 5521 5512 5507 5502 5499 5495 5497 5500 5505 5510 5514 5520 5527 5535 5545 5554 5563 5570 5579 5595 5608
5679 5673 5670 5664 5660 5655 5650 5643 5634 5625 5615 5606 5602 5596 5591 5583 5577 5570 5562 5554 5543 5530 5517 5507 5498 5491 5484 5477 5473 5471 5472 5478 5485 5493 5501 5510 5519 5528 5536 5545 5555 5564 5573 5588
5672 5667 5663 5658 5654 5648 5642 5636 5628 5618 5608 5600 5595 5590 5587 5578 5571 5565 5555 5544 5532 5521 5508 5497 5487 5477 5469 5462 5457 5452 5450 5454 5461 5469 5482 5493 5502 5511 5520 5528 5540 5549 5557 5568
5666 5662 5657 5653 5647 5642 5635 5628 5620 5610 5600 5593 5590 5586 5581 5573 5565 5556 5546 5535 5524 5511 5500 5488 5477 5466 5457 5450 5444 5438 5435 5435 5442 5453 5465 5476 5487 5497 5505 5513 5526 5538 5546 5554
5660 5657 5651 5647 5641 5635 5628 5621 5612 5601 5594 5589 5587 5583 5577 5569 5559 5548 5536 5527 5514 5500 5488 5478 5466 5455 5448 5441 5434 5429 5426 5427 5434 5443 5453 5464 5474 5484 5493 5502 5513 5526 5536 5544
5653 5651 5645 5640 5635 5631 5623 5615 5608 5597 5592 5583 5581 5575 5568 5562 5553 5543 5532 5521 5507 5494 5482 5472 5460 5449 5442 5435 5429 5425 5424 5427 5433 5440 5448 5457 5464 5475 5484 5492 5502 5515 5525 5534
5647 5644 5640 5635 5631 5626 5619 5610 5603 5594 5585 5577 5575 5573 5565 5558 5550 5539 5528 5514 5503 5492 5480 5469 5459 5447 5439 5433 5429 5426 5426 5428 5433 5439 5444 5452 5459 5468 5477 5485 5495 5506 5516 5525
5640 5638 5635 5630 5625 5620 5614 5606 5598 5591 5584 5577 5569 5571 5562 5555 5544 5536 5523 5511 5500 5490 5480 5469 5459 5450 5441 5436 5432 5430 5430 5431 5434 5438 5442 5448 5455 5463 5470 5478 5488 5498 5507 5516
5633 5630 5629 5625 5620 5615 5610 5601 5595 5586 5581 5575 5570 5568 5558 5551 5543 5532 5521 5510 5499 5487 5479 5469 5460 5452 5445 5439 5436 5434 5433 5433 5436 5438 5442 5446 5452 5458 5465 5473 5481 5491 5499 5509
5626 5624 5622 5619 5616 5610 5605 5598 5590 5583 5576 5574 5568 5565 5557 5552 5542 5531 5521 5509 5499 5488 5478 5470 5460 5453 5446 5441 5437 5434 5433 5433 5434 5436 5440 5444 5449 5454 5460 5467 5476 5486 5494 5503
5619 5619 5616 5612 5608 5603 5599 5592 5585 5580 5573 5569 5566 5562 5558 5549 5541 5533 5522 5510 5500 5491 5479 5470 5461 5453 5446 5442 5438 5434 5432 5432 5432 5434 5436 5440 5445 5450 5456 5464 5474 5482 5490 5499
5613 5613 5610 5606 5602 5598 5594 5589 5583 5576 5569 5564 5565 5559 5555 5549 5542 5533 5522 5511 5502 5492 5484 5474 5464 5454 5446 5440 5437 5435 5431 5430 5431 5433 5435 5438 5442 5447 5454 5462 5470 5478 5486 5495
5607 5605 5603 5602 5597 5592 5590 5585 5580 5573 5565 5560 5559 5559 5552 5548 5542 5533 5523 5513 5504 5495 5487 5479 5470 5459 5450 5444 5437 5433 5432 5430 5432 5432 5433 5435 5439 5444 5451 5457 5465 5473 5482 5491
5601 5598 5595 5595 5591 5588 5586 5581 5576 5571 5564 5558 5556 5554 5551 5547 5541 5534 5525 5515 5507 5499 5491 5483 5477 5466 5457 5450 5442 5439 5435 5432 5431 5429 5430 5433 5436 5439 5445 5453 5462 5470 5478 5485
5593 5591 5588 5587 5584 5582 5580 5576 5572 5568 5561 5557 5553 5551 5548 5545 5541 5535 5527 5518 5511 5501 5495 5487 5482 5473 5462 5458 5453 5446 5443 5440 5438 5436 5435 5434 5436 5436 5440 5447 5458 5467 5476 5483
5586 5584 5581 5578 5576 5577 5576 5570 5567 5564 5562 5555 5551 5548 5546 5544 5540 5535 5529 5522 5516 5506 5498 5493 5486 5480 5471 5465 5462 5456 5450 5447 5446 5444 5442 5444 5445 5445 5450 5457 5464 5473 5481 5488
5579 5576 5575 5572 5567 5567 5569 5564 5561 5559 5557 5552 5548 5545 5543 5541 5540 5536 5530 5524 5520 5514 5503 5497 5492 5486 5480 5475 5468 5465 5461 5457 5457 5456 5454 5455 5456 5459 5465 5469 5477 5481 5487 5496
5572 5569 5567 5563 5559 5560 5563 5558 5555 5554 5554 5548 5545 5542 5539 5538 5538 5535 5530 5525 5521 5517 5511 5504 5498 5492 5488 5484 5479 5475 5472 5469 5467 5466 5466 5466 5467 5470 5475 5480 5484 5488 5496 5502
5565 5561 5560 5556 5553 5552 5553 5551 5549 5548 5545 5543 5540 5538 5536 5534 5535 5533 5530 5526 5521 5518 5515 5509 5505 5500 5494 5491 5487 5485 5483 5481 5479 5477 5476 5478 5480 5482 5484 5488 5493 5499 5505 5511
5556 5554 5549 5547 5548 5544 5543 5542 5540 5540 5538 5537 5535 5533 5532 5530 5531 5531 5528 5525 5522 5518 5517 5513 5510 5506 5503 5499 5496 5494 5492 5491 5490 5489 5489 5489 5490 5493 5496 5500 5503 5506 5509 5512
5548 5544 5540 5534 5541 5534 5530 5531 5531 5531 5531 5530 5529 5527 5526 5526 5527 5528 5526 5523 5521 5519 5517 5516 5513 5510 5507 5505 5503 5501 5500 5499 5499 5499 5499 5500 5501 5502 5504 5507 5509 5512 5514 5516
5541 5536 5530 5526 5528 5520 5519 5521 5523 5523 5522 5521 5520 5520 5520 5521 5523 5525 5523 5521 5520 5519 5518 5517 5516 5514 5512 5511 5510 5509 5508 5508 5508 5507 5508 5509 5510 5511 5513 5515 5517 5518 5520 5521
5532 5527 5522 5516 5514 5513 5516 5515 5514 5514 5512 5511 5511 5512 5513 5515 5518 5520 5519 5518 5518 5518 5518 5518 5517 5517 5516 5516 5515 5515 5514 5514 5514 5514 5514 5515 5515 5516 5517 5519 5520 5522 5523 5524